Location: Burbank
(38.7788°N, 114.0429°W)
Time: 19:09:37
(UTC+00:00)

Vanguard 2 - Pass Details

Date: 12 May 2026
Orbit: 553 x 2894 km, 32.9° (Epoch: 6 June)

Event Time Altitude Azimuth Distance (km) Brightness Sun altitude
Rises 11:48:38 0° 254° (WSW) 6,727 - -7.4°
Exits shadow 11:51:21 - 253° (WSW) 6,114 11.5 -6.9°
Reaches altitude 10° 11:53:13 10° 253° (WSW) 5,691 11.3 -6.6°
Maximum altitude 12:10:12 68° 175° (S) 2,555 10.1 -3.7°
Drops below altitude 10° 12:21:58 10° 96° (E) 4,105 12.4 -1.6°
Sets 12:24:43 0° 94° (E) 4,826 12.9 -1.2°
